YAOGAN-43 01D

Last updated on Sun Sep 15 2024 00:02:03 GMT+0000 (Coordinated Universal Time)

1 60461U 24148D 24258.31985609 .00051196 00000+0 21499-2 0 9996 2 60461 34.9958 232.7498 0006504 198.6028 161.4449 15.22382103 4371
UTC large
Height (km)
Speed (km/s)
/
Latitude / Longitude
Inclination (degrees)
Orbital Period (minutes)
Azimuth
Elevation
Range (km)
Doppler Factor

Next 0 passes for location: London (51.5072 / 0.1276)

Sorry there are no passes over London.